Theta_e
300 300 300 300 300 301 301 300 302 301 301 301 300 298 297 297 296 295 296 297 297 296 296 296 295 295 295 295 293 293 294 293 290 293 295 295 294 293 293 294 294 293 293
296 296 296 296 296 295 295 296 295 294 294 294 292 292 291 290 291 292 293 294 293 292 292 292 291 292 291 291 291 290 291 291 289 287 290 290 291 291 291 290 291 291 290
293 293 293 293 293 292 292 291 291 290 290 289 289 288 287 286 287 287 287 288 289 287 287 288 288 287 286 286 287 287 287 288 288 285 285 288 288 289 288 288 288 288 288
291 291 290 289 290 289 289 288 288 287 287 286 285 284 284 284 284 284 284 284 284 284 284 284 283 285 285 284 284 285 286 285 285 285 284 284 285 286 286 285 284 286 286
289 288 287 287 287 286 285 285 284 284 284 284 284 284 284 284 284 283 283 283 283 282 283 284 285 285 287 287 286 285 285 284 283 283 282 283 283 283 283 284 283 284 284
286 286 285 285 284 283 284 283 283 282 282 282 281 283 283 285 290 288 284 282 283 283 283 282 284 284 285 286 287 287 286 284 282 282 282 281 282 283 284 283 283 282 280
284 284 284 284 283 283 282 282 281 281 281 280 280 282 283 285 289 288 286 283 282 282 282 282 283 283 282 284 286 286 286 287 286 284 282 282 282 283 284 283 283 283 283
283 283 283 282 282 281 280 280 279 279 280 280 280 282 283 286 288 287 285 282 282 282 282 282 282 282 282 283 282 282 283 283 283 283 284 284 285 285 285 285 284 283 283
282 282 281 281 280 279 278 278 278 279 279 278 280 279 284 285 288 287 284 281 282 282 282 282 282 282 285 287 283 280 281 284 287 288 289 289 288 288 287 284 281 280 278
282 281 280 279 278 276 277 276 274 276 279 280 279 277 277 274 287 286 283 280 276 280 281 282 283 283 285 286 283 283 281 282 283 284 285 285 284 283 285 283 282 279 278
280 279 278 277 276 276 276 273 275 277 278 276 276 275 275 276 280 285 285 281 279 277 278 279 280 285 285 285 285 282 282 283 282 283 283 281 278 279 280 281 282 281 278
278 277 275 274 277 276 275 275 275 276 276 273 275 274 273 275 281 284 284 284 283 273 275 279 280 283 283 281 278 281 280 279 279 279 278 279 279 279 279 280 280 281 282
275 274 272 271 273 274 274 275 274 275 276 275 275 273 272 275 277 282 282 282 281 276 277 279 279 278 277 274 276 276 272 271 271 272 274 275 277 278 279 279 280 279 278
273 272 272 273 272 276 277 277 276 276 275 275 275 273 272 272 275 274 273 272 276 274 273 268 273 273 273 271 268 270 268 268 269 269 270 271 272 274 274 277 277 278 277
274 273 273 274 276 274 275 275 276 276 277 275 272 273 273 273 274 278 274 270 267 271 261 258 259 261 263 264 264 265 265 266 266 267 267 267 268 269 270 271 273 276 275
273 273 274 275 274 274 275 276 279 279 280 280 279 277 275 279 280 279 277 277 275 273 258 255 257 259 261 261 260 261 262 263 264 265 264 265 265 265 266 268 271 271 272
274 274 274 274 274 274 274 275 275 279 281 281 281 280 278 278 278 277 275 274 272 266 255 253 254 255 256 258 258 259 259 262 262 261 262 262 263 263 264 265 266 267 268
275 275 275 274 274 274 274 274 276 273 271 272 279 276 278 277 276 275 273 268 256 257 251 251 251 252 254 254 254 255 258 258 259 260 259 260 260 261 262 262 263 264 265
275 274 274 273 272 273 273 272 272 271 270 268 265 271 268 276 275 272 269 257 255 252 251 249 250 251 252 252 252 251 251 252 254 253 255 256 257 260 260 260 261 262 264
274 273 272 271 270 270 269 268 267 265 264 264 262 263 258 260 258 258 253 252 251 252 251 249 249 247 248 248 248 248 248 249 250 251 252 254 256 255 258 258 259 259 260
270 269 270 269 268 268 267 267 266 264 264 263 261 259 266 259 259 257 254 250 253 250 251 250 249 247 246 247 246 246 247 250 248 249 249 251 254 255 255 256 256 257 258
269 267 267 267 267 267 266 266 265 264 263 262 259 261 273 258 256 254 252 251 251 250 251 251 249 249 250 249 250 247 248 249 247 246 247 249 252 253 253 254 253 255 256
267 267 266 265 266 267 265 265 264 263 263 263 262 261 257 256 254 253 251 250 248 249 247 246 248 249 248 248 247 249 249 251 251 247 247 247 249 251 249 251 252 250 250
266 265 266 265 265 265 265 264 264 264 263 261 259 257 256 254 253 252 251 250 247 247 246 246 247 249 249 249 247 246 247 248 246 248 248 248 249 249 247 248 249 249 250
267 266 266 266 266 265 265 264 263 262 261 259 257 255 254 252 250 250 250 248 247 246 249 248 247 248 250 250 249 248 248 254 252 250 247 245 248 247 248 248 248 246 246
267 267 266 266 265 265 264 262 261 260 258 257 256 255 254 253 252 250 249 248 249 249 250 249 249 249 249 249 249 251 254 257 256 254 252 248 250 250 246 249 247 244 245
Wind_Speed
5 5 7 6 6 6 7 6 7 5 5 6 6 7 6 6 6 6 7 6 6 6 6 5 6 6 4 4 4 3 3 3 5 3 2 3 5 8 9 9 9 8 8
4 6 6 6 6 7 7 7 6 7 6 6 7 7 6 6 6 7 8 7 7 7 6 6 7 5 6 5 4 5 4 4 3 8 5 4 5 6 7 9 7 7 7
6 7 6 6 6 7 7 7 7 7 6 7 7 7 6 6 6 6 6 6 6 6 5 5 5 5 4 3 3 3 3 4 4 6 8 4 6 7 9 7 6 8 4
5 6 6 6 7 6 6 7 7 6 8 7 7 7 7 7 6 6 6 6 6 6 6 6 6 5 5 5 4 4 4 5 5 5 7 9 8 6 7 9 9 8 10
7 6 6 6 6 7 7 7 7 7 7 7 7 6 7 7 4 6 6 6 6 6 5 5 5 5 9 8 4 5 5 5 6 9 7 8 8 9 11 9 11 12 9
7 7 6 7 7 7 7 7 7 6 7 7 6 6 6 4 11 11 7 6 5 5 4 4 4 5 6 9 10 11 9 7 9 6 8 9 11 10 9 9 11 11 12
7 6 7 7 8 7 7 7 7 6 6 6 5 6 7 6 11 11 10 5 5 5 4 4 3 2 3 4 7 11 10 14 13 9 9 9 11 10 11 13 11 11 11
8 8 7 7 8 6 6 7 5 4 6 6 5 6 6 6 11 11 9 6 4 3 2 0 1 3 4 6 4 5 6 5 7 6 7 9 9 10 10 10 12 13 11
10 10 8 8 8 7 7 7 4 7 6 4 4 6 10 7 9 9 6 3 3 3 3 3 4 5 12 16 8 7 7 8 8 17 19 18 17 21 18 9 8 9 11
12 10 8 8 8 7 7 6 2 4 7 6 7 5 4 2 9 9 6 2 3 2 4 5 10 7 13 16 9 10 11 12 12 11 8 8 9 11 18 9 8 9 9
10 10 9 7 8 7 7 3 5 7 7 5 6 4 4 4 4 8 7 2 2 2 2 2 2 12 15 15 15 8 12 15 15 10 8 6 5 7 6 6 7 8 9
12 10 8 7 6 6 8 6 6 9 9 5 7 4 2 3 5 6 7 7 5 3 2 3 4 12 14 15 10 16 19 14 8 8 8 9 8 8 8 8 9 10 8
11 9 7 6 6 6 8 8 6 5 6 6 6 4 2 1 2 7 4 5 5 3 2 6 10 11 12 10 15 16 10 6 7 6 7 8 9 11 11 10 10 9 9
13 11 9 9 8 7 5 5 6 6 6 6 6 5 3 2 2 1 1 1 5 4 5 4 6 7 10 8 5 8 6 6 7 7 8 8 8 8 9 10 10 9 7
11 10 9 7 8 7 4 4 5 2 5 7 4 5 6 3 3 5 5 2 2 3 4 3 3 3 4 5 5 5 5 6 7 8 7 9 9 9 8 10 8 10 7
12 9 9 8 7 7 7 6 7 8 10 10 12 8 2 8 7 7 7 5 4 8 4 2 1 1 3 3 3 4 3 5 6 7 7 7 8 9 9 10 9 9 9
12 11 8 9 8 9 8 9 10 7 10 11 14 11 10 8 9 8 8 7 6 6 4 1 1 1 1 2 2 2 2 4 5 3 4 6 7 8 10 9 9 9 9
9 12 10 9 9 8 8 8 8 9 9 5 10 7 10 9 9 8 8 6 3 5 2 3 2 1 1 2 2 2 3 4 4 4 4 4 5 6 7 8 8 9 9
9 8 7 6 5 7 7 7 6 6 6 5 1 4 2 10 8 8 4 3 3 3 2 2 3 3 3 2 2 2 2 3 3 3 3 4 4 5 7 6 7 11 11
7 10 8 7 6 6 6 6 6 6 6 7 5 4 2 4 2 2 2 2 2 2 3 3 3 3 4 3 3 3 3 3 3 3 2 3 4 3 5 7 7 8 8
6 7 9 6 7 6 7 7 6 6 6 6 4 4 10 3 4 4 4 3 4 3 3 4 4 4 3 4 3 3 3 4 3 3 3 3 4 4 4 4 5 6 7
6 6 6 7 6 7 7 6 5 6 6 6 3 3 15 3 4 4 4 4 5 4 4 5 4 4 4 4 4 4 4 5 4 3 4 3 3 3 3 5 5 5 6
7 8 8 6 6 7 6 6 6 6 6 6 6 5 3 3 4 4 5 5 3 4 4 4 4 4 4 4 4 5 5 6 5 3 4 4 3 3 3 3 4 4 3
7 7 8 7 6 6 7 8 7 8 6 5 5 5 5 4 5 6 5 4 3 4 3 4 4 6 4 5 4 4 5 5 4 5 7 5 5 4 3 3 3 3 4
10 10 10 10 10 9 7 7 7 7 7 6 6 5 4 4 4 5 4 4 4 3 5 5 4 6 9 9 8 8 7 10 8 7 5 5 7 6 5 4 3 3 2
9 9 9 8 8 8 8 8 8 7 7 6 5 5 5 5 5 4 4 4 4 5 6 4 6 9 10 8 9 10 10 12 10 10 6 5 5 5 4 5 6 3 4
Wind_Direction
120 116 107 109 110 103 104 104 92 90 93 85 83 76 67 71 62 73 67 67 72 62 41 50 45 24 24 18 12 7 350 337 296 306 298 322 304 300 315 323 318 315 314
112 94 90 95 97 99 96 93 92 88 69 89 86 84 79 70 63 76 81 72 72 64 47 47 39 29 30 24 17 7 349 346 320 306 310 312 294 309 308 303 303 306 296
118 124 119 109 100 95 96 92 91 99 91 79 83 84 80 73 77 72 87 85 79 75 68 67 54 42 32 16 3 354 333 329 322 312 312 318 307 304 311 301 305 307 281
127 117 115 113 110 105 99 95 97 95 96 87 76 78 73 67 61 61 66 68 67 58 53 58 48 40 27 7 359 348 332 328 322 315 310 314 319 320 308 318 315 314 314
142 131 127 119 110 106 102 103 100 96 100 103 104 92 93 91 92 87 82 82 83 76 56 53 47 39 16 7 359 345 340 329 326 325 314 314 320 326 324 318 308 312 307
139 138 129 118 116 115 120 121 108 105 98 98 100 109 103 96 99 96 103 100 95 97 91 66 54 36 10 7 354 344 340 333 327 316 317 312 313 312 311 311 306 308 312
142 141 139 137 133 135 131 118 117 126 121 109 113 102 89 86 90 84 89 87 90 75 68 65 37 350 334 331 339 337 327 324 322 306 296 300 302 305 299 300 298 290 294
147 150 147 143 137 133 126 125 124 123 116 117 110 107 106 106 108 97 103 110 116 115 106 67 348 317 315 330 321 307 293 273 269 275 264 277 278 293 296 305 308 299 289
161 162 158 149 145 147 141 142 140 125 109 97 110 104 119 119 119 119 112 85 76 50 25 3 10 2 341 342 331 305 298 299 296 289 288 289 301 312 308 309 307 306 304
170 164 153 153 154 148 140 136 120 116 124 126 115 105 115 98 113 106 98 114 73 53 358 357 14 344 340 337 329 326 322 324 316 304 283 275 304 297 303 300 293 298 306
150 143 146 148 149 144 135 122 136 122 121 113 111 105 95 81 91 91 89 78 82 35 357 352 304 333 341 339 346 345 329 335 320 308 317 313 287 297 291 274 273 285 292
142 143 141 137 141 136 138 136 132 131 130 125 127 105 69 50 108 86 55 46 42 94 331 347 332 347 11 11 8 352 352 343 340 338 326 325 320 317 311 301 287 282 271
132 133 131 120 123 140 143 142 132 131 136 152 137 135 136 118 130 91 65 73 51 47 8 14 19 19 25 24 9 7 2 353 344 340 335 330 327 317 308 306 304 282 273
143 147 146 145 146 151 148 152 148 152 156 150 147 153 159 170 128 252 95 92 45 59 54 38 53 49 42 28 1 6 352 349 347 341 335 324 321 333 329 332 320 310 297
142 147 151 154 159 146 131 152 148 141 182 151 158 151 153 160 210 179 139 136 149 130 107 38 18 22 18 8 359 354 353 358 358 345 344 339 336 332 330 328 322 328 306
150 159 166 161 155 153 147 132 150 170 157 154 156 158 182 162 160 138 119 116 112 145 59 81 30 19 33 9 352 336 328 349 348 347 343 330 332 333 332 330 335 333 330
163 163 160 163 164 161 161 156 153 146 148 165 171 165 164 160 158 142 137 125 109 91 97 83 116 46 312 328 323 287 298 330 320 310 311 325 331 332 335 335 336 334 331
157 167 170 172 171 170 169 169 160 160 167 165 169 167 177 165 161 140 154 139 44 39 100 160 175 199 246 251 274 281 320 326 308 309 315 322 330 331 331 337 334 333 330
158 165 165 161 167 171 173 152 158 155 165 165 146 173 262 170 159 151 185 172 160 163 177 167 192 209 227 245 272 290 257 271 281 305 314 315 317 331 327 327 323 328 328
166 163 160 158 149 169 157 158 165 172 169 179 184 193 148 74 127 220 229 164 148 188 182 179 214 215 217 222 252 255 279 291 297 286 289 301 297 299 313 322 327 327 327
154 148 155 153 166 183 164 173 175 171 178 188 190 176 183 170 194 205 206 202 192 196 194 207 216 213 207 222 228 246 250 265 261 265 280 281 295 309 298 293 306 315 318
158 158 168 172 166 175 170 161 170 176 180 176 178 190 217 154 178 209 222 217 216 208 207 204 214 204 211 211 216 229 250 257 259 255 266 262 268 282 295 298 303 313 322
167 164 169 164 181 174 168 165 182 186 180 187 170 183 197 178 195 223 233 232 218 226 228 211 221 244 228 228 213 213 232 248 236 206 250 253 250 260 249 280 293 307 307
156 165 170 167 172 188 189 178 187 192 177 183 176 186 201 193 207 225 232 244 242 244 237 231 224 235 255 253 237 226 233 246 227 235 230 236 248 247 249 247 264 275 287
177 181 182 183 187 189 189 194 186 190 185 176 190 197 200 199 220 234 237 235 239 247 254 239 231 241 248 250 252 247 244 259 250 232 223 216 241 242 237 237 244 265 265
186 186 185 182 187 185 187 190 190 182 181 187 197 200 200 204 214 222 237 238 241 243 251 245 243 248 253 252 250 253 254 256 250 236 222 212 233 247 227 240 244 235 249